Wind_Speed
14 14 14 14 14 13 13 12 12 12 12 11 11 12 12 12 11 11 11 11 10 10 10 10 9 9 9 8 8 7 7 7 6 6 5 5 5 5 5 5 4 4 4
15 16 16 16 16 15 14 14 14 14 13 13 13 13 13 13 13 13 12 12 12 12 12 12 11 11 11 10 10 9 9 8 8 7 7 6 6 6 6 6 5 5 5
17 17 17 17 17 17 16 16 15 15 15 15 14 14 14 14 14 14 14 13 13 13 13 13 13 13 12 12 12 11 11 10 9 9 8 7 7 7 7 7 7 7 7
18 18 18 17 17 18 18 17 17 17 17 16 16 16 15 15 15 15 15 15 15 15 14 14 14 14 14 14 14 13 12 11 11 10 9 9 8 8 8 8 8 8 8
19 19 19 19 18 18 19 18 18 18 18 18 17 17 17 17 17 16 16 16 16 16 16 16 15 15 16 16 15 15 14 13 13 12 12 11 11 10 10 10 9 9 9
20 20 20 19 19 19 19 19 19 18 19 19 19 19 19 18 18 18 18 17 17 17 17 17 17 16 16 17 17 17 16 16 15 15 14 13 13 13 12 12 11 11 11
20 20 20 20 20 19 19 19 19 19 20 20 20 20 20 19 20 20 19 19 18 18 18 19 18 17 17 18 18 18 18 18 17 17 16 16 15 15 14 14 14 13 13
20 20 20 20 20 20 20 20 20 20 20 21 21 21 21 21 21 21 21 21 20 20 19 19 20 19 19 19 19 19 19 19 19 19 18 18 17 17 17 16 16 15 15
20 20 20 21 21 20 21 21 21 21 21 22 22 22 22 22 22 22 22 22 21 21 21 21 21 21 21 20 20 20 21 21 21 21 20 20 20 19 19 18 18 18 17
21 20 21 21 21 21 22 22 22 23 23 23 23 23 23 24 23 23 23 23 23 23 22 22 22 22 22 22 22 22 22 22 22 22 22 22 22 21 21 20 20 20 19
22 22 22 22 22 22 22 23 23 23 23 24 24 24 24 24 24 24 24 24 24 24 24 24 24 24 24 23 23 23 23 24 24 24 24 24 23 23 23 23 22 22 21
24 23 23 23 23 23 23 23 24 24 24 24 24 24 24 25 25 24 25 25 25 25 25 25 25 25 26 25 25 25 25 25 25 25 25 26 25 24 24 24 24 24 23
25 24 25 25 24 24 24 24 24 24 25 25 25 25 25 25 25 25 25 25 25 26 26 26 27 26 27 27 26 26 26 26 26 26 27 27 27 27 26 26 26 25 25
26 26 26 26 26 26 26 25 25 25 25 26 26 26 26 26 26 26 26 26 26 26 27 27 27 28 27 28 28 28 28 28 28 28 28 29 29 29 29 29 29 28 27
27 27 27 27 27 27 27 27 27 26 26 26 26 26 26 26 26 26 27 27 27 27 27 27 28 29 29 29 29 29 29 29 29 30 30 31 31 31 31 31 31 30 30
27 27 28 28 28 28 28 28 28 28 27 27 27 27 26 26 26 27 27 28 28 27 27 27 28 29 30 29 30 30 29 30 30 31 32 33 33 34 34 34 34 34 33
28 28 28 28 28 29 29 29 29 29 27 27 28 28 27 27 27 27 27 28 29 28 28 28 28 29 29 29 30 31 31 31 32 32 33 34 35 35 36 36 36 36 36
29 29 29 29 29 29 29 30 29 29 29 28 28 28 29 29 28 29 28 28 29 29 28 28 28 29 30 30 30 31 31 32 33 33 34 35 36 36 37 38 38 37 37
30 30 30 30 29 29 29 30 30 30 30 29 29 29 29 30 29 29 30 29 29 29 29 29 29 29 30 30 30 31 32 33 34 34 35 37 37 37 37 38 38 38 39
31 31 31 31 30 30 30 30 30 30 30 30 30 30 30 30 30 30 30 30 31 30 30 30 30 30 30 30 31 31 32 33 34 35 35 37 38 38 39 39 39 39 39
32 33 33 32 31 31 31 31 30 30 31 31 30 30 30 30 31 31 31 31 31 31 31 31 31 31 32 32 32 32 33 33 34 34 35 36 37 38 39 40 40 40 40
33 33 34 33 33 33 32 32 32 31 31 31 31 31 31 31 31 31 31 32 32 32 32 32 32 32 31 32 33 33 33 34 35 35 35 36 37 38 39 40 40 41 41
34 34 34 34 34 34 34 34 34 33 33 32 32 32 32 32 31 31 32 32 33 33 33 33 33 33 33 33 33 33 33 34 35 36 37 36 36 37 38 39 40 40 41
35 35 35 35 35 35 35 35 35 34 34 34 33 33 32 32 31 32 32 33 33 33 34 34 34 34 34 34 34 34 34 34 35 35 36 37 36 36 38 39 40 41 41
35 35 35 35 35 35 36 36 35 35 35 35 35 34 34 33 33 33 33 33 33 34 34 34 35 34 34 34 34 34 35 35 35 35 36 37 38 38 37 38 39 40 41
36 36 36 36 36 36 36 36 36 36 36 36 35 35 35 35 35 35 35 34 34 34 35 35 35 35 35 35 36 35 35 35 35 35 36 37 38 39 39 39 40 40 40
Wind_Direction
258 257 255 255 253 251 249 248 248 247 246 246 245 243 242 240 237 235 232 230 228 228 229 229 229 226 225 225 227 231 231 232 234 235 230 225 222 222 222 225 228 226 223
260 258 256 254 253 252 250 250 249 249 248 248 247 245 244 241 239 238 237 236 235 235 235 235 234 232 231 231 232 236 237 236 237 238 235 232 230 230 230 231 233 231 230
259 258 256 256 254 253 252 251 250 250 249 248 248 246 245 243 243 241 239 239 239 240 240 239 238 237 234 234 234 236 238 237 237 237 237 236 234 234 234 234 236 236 236
260 259 257 257 256 254 253 253 253 252 250 249 247 247 246 245 245 244 243 242 242 244 243 242 241 241 237 237 237 236 237 237 236 236 237 237 235 236 237 237 239 239 239
261 260 259 258 257 256 255 255 253 252 251 250 249 248 247 247 246 246 246 245 244 246 245 245 244 244 242 238 238 237 237 238 238 239 241 241 241 240 241 242 243 243 243
260 260 259 258 256 255 255 254 253 252 252 251 250 249 248 248 247 246 246 245 245 246 247 246 246 246 244 241 240 239 240 240 241 242 243 244 245 243 243 244 245 246 248
259 259 258 257 255 254 255 255 253 252 252 252 250 249 248 250 249 247 245 245 245 246 247 247 247 246 245 244 243 243 243 243 243 244 245 246 245 245 246 246 246 247 250
259 258 258 257 256 256 256 255 254 253 252 252 251 250 250 250 250 248 247 246 247 248 248 248 247 247 245 246 246 246 245 245 244 244 246 247 247 247 247 248 249 248 249
257 257 258 258 256 255 255 255 254 254 253 252 252 251 250 250 250 250 249 249 249 250 250 249 249 249 248 247 247 248 248 247 246 245 246 248 248 249 249 249 249 250 250
258 258 257 257 257 257 257 256 254 254 254 253 253 252 252 252 251 251 251 250 251 252 252 251 250 252 250 249 249 249 249 249 247 247 247 248 249 250 250 250 250 251 251
257 258 259 258 257 257 257 256 255 255 254 254 254 253 252 252 252 252 251 250 251 251 252 252 252 252 253 252 251 249 250 251 250 249 249 249 250 250 251 252 252 252 251
257 258 258 258 258 258 257 257 256 255 254 255 254 253 253 253 253 254 253 251 251 251 251 252 252 252 253 253 252 251 251 252 252 251 251 250 250 251 252 254 254 252 252
258 257 257 258 259 259 258 258 256 255 255 255 255 254 255 255 254 254 254 252 251 251 251 252 253 252 253 254 254 254 252 252 253 254 253 252 251 251 252 253 253 252 252
258 259 259 259 259 258 257 257 256 255 256 255 253 254 255 255 254 254 253 253 252 252 253 252 253 251 253 254 253 254 253 253 254 255 255 254 253 253 253 252 253 252 251
259 259 260 259 258 257 256 257 256 256 256 255 255 255 255 254 253 253 252 252 252 253 254 254 252 252 254 254 252 253 254 253 254 255 255 255 254 254 255 255 254 253 253
259 259 260 259 257 255 255 256 256 256 255 254 256 255 255 255 255 254 253 252 251 253 255 255 254 254 255 255 252 253 255 255 255 256 255 255 255 256 255 255 255 254 255
259 259 259 258 257 255 255 256 256 255 255 254 255 255 255 256 257 256 254 252 252 253 255 256 253 253 254 255 254 253 255 256 257 256 256 256 256 256 256 256 256 255 255
260 259 258 257 257 256 255 256 256 255 254 255 255 256 256 256 257 256 256 255 254 254 255 256 255 254 254 255 255 256 257 258 258 259 258 257 257 257 257 256 255 253 254
259 259 258 257 256 256 256 256 256 255 255 256 255 256 257 257 257 257 256 256 257 256 256 256 256 256 255 256 256 256 258 259 259 260 260 260 259 259 258 257 256 253 254
258 258 257 256 255 255 255 256 256 255 255 257 257 257 257 257 257 256 256 255 256 256 255 255 256 256 257 258 259 260 260 260 260 260 261 261 260 259 258 256 256 254 254
257 257 256 255 254 255 255 255 255 255 255 257 256 256 256 257 258 257 256 255 255 256 256 257 258 257 258 259 259 261 263 263 262 262 262 262 261 259 257 256 256 255 254
256 255 255 255 254 254 254 254 255 255 255 256 257 258 258 259 259 259 257 257 257 257 258 259 259 260 261 261 261 263 264 264 264 263 264 263 261 260 258 257 256 254 254
256 255 254 254 254 254 254 254 255 255 256 257 258 259 259 259 259 259 259 258 258 260 260 260 261 262 262 263 263 264 265 266 266 264 264 264 262 260 259 258 257 255 254
256 255 255 253 253 253 254 255 255 255 255 257 258 258 259 260 260 260 260 260 260 260 260 260 260 262 262 262 263 265 267 267 267 266 265 264 263 262 260 257 257 256 255
255 255 255 254 253 253 254 255 255 255 255 256 257 258 259 260 260 260 260 261 261 261 261 261 261 262 262 262 263 265 267 267 267 266 265 265 265 263 261 258 257 257 257
254 254 254 254 254 253 254 255 255 255 255 255 256 257 258 260 260 260 260 261 262 262 262 261 261 263 263 262 263 264 266 267 267 267 266 266 265 263 262 261 260 259 260
Height
5843 5843 5843 5843 5843 5844 5844 5844 5845 5845 5845 5846 5846 5847 5847 5848 5848 5849 5849 5850 5850 5851 5851 5852 5853 5853 5854 5854 5855 5856 5856 5857 5857 5857 5858 5858 5858 5859 5859 5859 5860 5860 5860
5840 5840 5840 5840 5841 5841 5841 5842 5842 5842 5843 5843 5844 5844 5845 5846 5846 5847 5847 5848 5849 5849 5850 5850 5851 5851 5852 5853 5853 5854 5855 5855 5856 5856 5856 5857 5857 5858 5858 5859 5859 5859 5859
5837 5837 5837 5837 5838 5838 5838 5839 5839 5840 5840 5841 5841 5842 5842 5843 5844 5844 5845 5846 5846 5847 5847 5848 5849 5849 5850 5851 5852 5852 5853 5854 5854 5855 5855 5856 5856 5857 5857 5857 5858 5858 5858
5833 5833 5834 5834 5834 5835 5835 5836 5836 5837 5837 5838 5838 5839 5839 5840 5841 5841 5842 5843 5844 5844 5845 5846 5846 5847 5848 5849 5849 5850 5851 5852 5852 5853 5854 5854 5855 5855 5856 5856 5856 5857 5857
5830 5830 5830 5830 5831 5831 5831 5832 5833 5833 5834 5834 5835 5836 5836 5837 5838 5838 5839 5840 5841 5841 5842 5843 5844 5844 5845 5846 5847 5848 5849 5850 5850 5851 5852 5852 5853 5853 5854 5855 5855 5855 5856
5826 5826 5826 5826 5827 5827 5828 5828 5829 5829 5830 5830 5831 5832 5833 5833 5834 5835 5836 5837 5837 5838 5839 5840 5841 5841 5842 5843 5844 5845 5846 5847 5848 5849 5849 5850 5851 5851 5852 5852 5853 5853 5854
5821 5821 5822 5822 5823 5823 5824 5824 5825 5825 5826 5826 5827 5828 5829 5829 5830 5831 5832 5833 5834 5835 5835 5836 5837 5838 5839 5840 5841 5842 5843 5844 5845 5846 5846 5847 5848 5849 5849 5850 5851 5851 5851
5817 5817 5817 5818 5818 5819 5819 5820 5820 5821 5822 5822 5823 5823 5824 5825 5826 5827 5828 5829 5830 5831 5832 5833 5834 5835 5836 5837 5837 5838 5839 5840 5841 5842 5843 5844 5845 5846 5846 5847 5848 5848 5848
5812 5813 5813 5813 5814 5814 5815 5815 5816 5817 5817 5817 5818 5819 5820 5821 5821 5822 5823 5825 5826 5827 5828 5829 5830 5831 5831 5832 5833 5834 5835 5836 5837 5838 5839 5840 5841 5842 5843 5844 5844 5845 5845
5808 5808 5808 5808 5809 5809 5810 5810 5811 5812 5812 5813 5813 5814 5815 5816 5817 5817 5819 5820 5821 5822 5823 5824 5825 5826 5827 5828 5829 5830 5831 5832 5833 5834 5835 5836 5837 5838 5839 5840 5840 5841 5842
5803 5803 5803 5803 5804 5804 5805 5805 5806 5806 5807 5807 5808 5809 5810 5810 5811 5812 5814 5815 5816 5817 5818 5819 5820 5821 5822 5823 5824 5825 5826 5827 5828 5829 5830 5832 5833 5834 5834 5835 5836 5837 5838
5797 5798 5798 5798 5798 5799 5799 5800 5800 5801 5801 5802 5802 5803 5804 5805 5806 5807 5808 5809 5811 5812 5813 5814 5815 5816 5817 5818 5819 5820 5821 5822 5823 5824 5826 5827 5828 5829 5830 5830 5831 5832 5833
5792 5792 5792 5792 5793 5793 5794 5794 5795 5795 5796 5797 5797 5798 5799 5799 5800 5801 5803 5804 5805 5806 5807 5808 5809 5810 5811 5812 5813 5814 5816 5817 5818 5819 5820 5822 5823 5824 5825 5825 5826 5827 5828
5786 5786 5786 5786 5787 5787 5788 5788 5789 5790 5790 5791 5791 5792 5793 5794 5795 5796 5797 5798 5799 5800 5801 5802 5803 5804 5805 5806 5808 5809 5810 5811 5812 5813 5815 5816 5817 5818 5819 5820 5821 5821 5822
5779 5780 5780 5780 5780 5781 5782 5782 5783 5784 5784 5785 5785 5786 5787 5788 5789 5790 5791 5792 5793 5794 5795 5796 5797 5798 5799 5800 5801 5802 5803 5805 5806 5807 5808 5809 5811 5812 5813 5814 5815 5815 5816
5773 5773 5773 5773 5774 5774 5775 5776 5777 5778 5778 5779 5779 5780 5781 5782 5783 5784 5784 5786 5786 5787 5788 5790 5791 5791 5792 5793 5795 5796 5797 5798 5799 5800 5801 5802 5804 5805 5806 5807 5808 5809 5810
5766 5766 5766 5766 5767 5768 5768 5769 5770 5771 5772 5773 5773 5774 5775 5776 5776 5777 5778 5779 5780 5781 5782 5783 5784 5785 5786 5787 5788 5789 5790 5791 5792 5793 5794 5795 5796 5797 5798 5799 5801 5802 5803
5758 5758 5758 5759 5760 5760 5761 5762 5763 5764 5765 5766 5766 5767 5768 5769 5770 5771 5771 5772 5773 5774 5775 5776 5777 5778 5779 5780 5781 5782 5782 5783 5784 5785 5786 5786 5787 5788 5790 5791 5792 5794 5795
5750 5750 5751 5752 5752 5753 5754 5755 5756 5757 5758 5758 5759 5760 5761 5762 5763 5764 5765 5765 5766 5767 5768 5769 5770 5771 5772 5773 5773 5774 5775 5775 5776 5776 5777 5778 5779 5780 5781 5782 5783 5785 5787
5741 5742 5743 5744 5745 5746 5747 5748 5749 5750 5751 5751 5752 5753 5754 5755 5756 5757 5757 5758 5759 5760 5761 5762 5763 5764 5764 5765 5766 5767 5767 5767 5768 5768 5768 5768 5769 5770 5771 5772 5774 5776 5778
5733 5734 5735 5736 5737 5738 5739 5741 5741 5743 5743 5744 5745 5746 5747 5748 5748 5749 5750 5751 5752 5753 5753 5754 5755 5756 5756 5757 5758 5759 5759 5759 5759 5759 5758 5759 5759 5760 5762 5763 5765 5767 5769
5724 5725 5726 5727 5728 5730 5731 5732 5734 5735 5736 5737 5737 5738 5739 5740 5741 5741 5742 5743 5744 5745 5746 5746 5747 5748 5748 5749 5750 5750 5750 5751 5750 5750 5750 5750 5750 5751 5752 5754 5755 5757 5760
5714 5715 5717 5718 5720 5721 5722 5724 5725 5726 5728 5729 5730 5731 5731 5732 5733 5734 5734 5735 5736 5737 5737 5738 5739 5740 5740 5741 5741 5741 5742 5742 5742 5742 5741 5741 5741 5742 5743 5744 5746 5747 5749
5705 5706 5707 5709 5710 5712 5714 5715 5717 5718 5719 5720 5721 5722 5723 5724 5725 5726 5726 5727 5727 5728 5729 5730 5730 5731 5731 5732 5732 5732 5733 5733 5733 5733 5733 5732 5732 5732 5733 5735 5736 5738 5739
5695 5696 5697 5699 5701 5702 5704 5706 5707 5709 5710 5711 5713 5714 5715 5716 5716 5717 5718 5718 5719 5719 5720 5720 5721 5722 5723 5723 5723 5724 5724 5723 5723 5724 5724 5723 5723 5723 5724 5726 5727 5728 5729
5684 5686 5688 5689 5691 5693 5694 5696 5698 5699 5701 5702 5703 5705 5706 5707 5707 5708 5709 5709 5710 5710 5711 5711 5712 5713 5713 5714 5714 5714 5714 5714 5714 5714 5714 5714 5714 5714 5714 5716 5716 5718 5719